Location: Santa Maria di Sala
(45.5070°N, 12.0300°E)
Time: 04:47:25
(UTC+01:00)

CAS-4B - Visible Passes

Search period start: 03 March 2024 00:00
Search period end: 13 March 2024 00:00
Orbit: 486 x 501 km, 43.0° (Epoch: 02 March)

Date Brightness Start Highest point End Pass type
(mag) Time Alt. Az. Time Alt. Az. Time Alt. Az.
03 Mar ? 05:04:37 20° SSW 05:04:37 20° SSW 05:06:53 10° SSE visible
04 Mar ? 04:41:49 13° SSE 04:41:49 13° SSE 04:42:31 10° SSE visible
11 Mar ? 20:24:20 10° SW 20:25:26 17° SSW 20:25:26 17° SSW visible
12 Mar ? 19:59:46 10° SW 20:02:31 29° S 20:02:31 29° S visible
